Lethbridge,

5:42 AM MDT on September 24, 2017 (GMT -0600)
Lethbridge

Weather History for CYQL - June, 2013

Change the Weather History Date:

Saturday, June 1, 2013

  Actual Average Record
Temperature  
Mean Temperature 54 °F -  
Max Temperature 67 °F 64 °F 80 °F (2001)
Min Temperature 41 °F 42 °F 28 °F (2014)
Degree Days  
Heating Degree Days 11    
Growing Degree Days 4 (Base 50)    
Moisture  
Dew Point 42 °F    
Average Humidity 60    
Maximum Humidity 87    
Minimum Humidity 28    
Precipitation  
Precipitation 0.00 in - - ()
Sea Level Pressure  
Sea Level Pressure 30.16 in    
Wind  
Wind Speed 7 mph ()    
Max Wind Speed 16 mph    
Max Gust Speed 21 mph    
Visibility 9.4 miles    
Events      
Averages and records for this station are not official NWS values.
T = Trace of Precipitation, MM = Missing Value Source: Averaged Metar Reports

Daily Weather History Graph

Daily Weather History Graph

Search for Another Location

Airport or City:

Trip Planner

Search our weather history database for the weather conditions in past years. The results will help you decide how hot, cold, wet, or windy it might be!

Date:

Astronomy

Jun. 01, 2013 Rise Set
Actual Time 5:28 AM MDT 9:30 PM MDT
Civil Twilight 4:46 AM MDT 10:12 PM MDT
Nautical Twilight 3:47 AM MDT 11:12 PM MDT
Astronomical Twilight 1:57 AM MDT 1:07 AM MDT
Moon 2:03 AM MDT (6/1) 2:29 PM MDT (6/1)
Length of Visible Light 17h 26m
Length of Day
16h 01m
Last Quarter, 40% of the Moon is Illuminated
Jun 1
Last Quarter
Jun 8
New
Jun 16
First Quarter
Jun 23
Full
Jun 29
Last Quarter

Hourly Weather History & Observations

Time (MDT) Temp. Windchill Dew Point Humidity Pressure Visibility Wind Dir Wind Speed Gust Speed Precip Events Conditions
12:00 AM 48 °F - 45 °F 85% 30.25 in 10 mi SW 6.9 mph - -  
12:00 AM 48.2 °F - 44.6 °F 87% 30.25 in 9.0 mi SW 6.9 mph - N/A   Mostly Cloudy
1:00 AM 50.0 °F - 44.6 °F 82% 30.25 in 9.0 mi WSW 9.2 mph - N/A   Overcast
2:00 AM 50.0 °F - 44.6 °F 82% 30.25 in 9.0 mi WSW 9.2 mph - N/A   Overcast
3:00 AM 48.2 °F - 42.8 °F 82% 30.25 in 9.0 mi SW 9.2 mph - N/A   Overcast
4:00 AM 44.6 °F 39.7 °F 41.0 °F 87% 30.26 in 9.0 mi WSW 9.2 mph - N/A   Overcast
5:00 AM 42.8 °F 38.0 °F 39.2 °F 87% 30.26 in 9.0 mi South 8.1 mph - N/A   Clear
6:00 AM 44 °F - 39 °F 76% 30.25 in 10 mi SSW 10.4 mph - -  
6:00 AM 44.6 °F 38.8 °F 39.2 °F 81% 30.25 in 40.0 mi SSW 11.5 mph - N/A   Partly Cloudy
7:00 AM 46.4 °F 42.4 °F 41.0 °F 81% 30.23 in 40.0 mi SW 8.1 mph - N/A   Partly Cloudy
8:00 AM 51.8 °F - 41.0 °F 67% 30.22 in 40.0 mi SW 12.7 mph - N/A   Scattered Clouds
9:00 AM 55.4 °F - 42.8 °F 63% 30.21 in 40.0 mi WSW 16.1 mph - N/A   Mostly Cloudy
10:00 AM 59.0 °F - 44.6 °F 59% 30.20 in 40.0 mi WSW 12.7 mph 20.7 mph N/A   Mostly Cloudy
11:00 AM 60.8 °F - 44.6 °F 55% 30.18 in 25.0 mi WSW 9.2 mph - N/A   Mostly Cloudy
12:00 PM 62 °F - 41 °F 34% 30.17 in 10 mi WSW 11.5 mph - -  
12:00 PM 62.6 °F - 41.0 °F 45% 30.18 in 40.0 mi WSW 8.1 mph 18.4 mph N/A   Mostly Cloudy
1:00 PM 62.6 °F - 41.0 °F 45% 30.16 in 40.0 mi WSW 8.1 mph - N/A   Mostly Cloudy
2:00 PM 64.4 °F - 39.2 °F 40% 30.13 in 40.0 mi West 5.8 mph - N/A   Overcast
3:00 PM 64.4 °F - 41.0 °F 42% 30.12 in 40.0 mi WSW 11.5 mph - N/A   Overcast
4:00 PM 66.2 °F - 41.0 °F 40% 30.10 in 40.0 mi West 4.6 mph - N/A   Overcast
5:00 PM 66.2 °F - 39.2 °F 37% 30.09 in 40.0 mi WSW 4.6 mph - N/A   Overcast
6:00 PM 65 °F - 40 °F 28% 30.08 in 10 mi SSE 2.3 mph - -   Overcast
6:00 PM 64.4 °F - 39.2 °F 40% 30.08 in 40.0 mi Variable 2.3 mph - N/A   Overcast
7:00 PM 64.4 °F - 41.0 °F 42% 30.06 in 40.0 mi NNW 4.6 mph - N/A   Overcast
8:00 PM 62.6 °F - 42.8 °F 48% 30.04 in 40.0 mi WNW 3.5 mph - N/A   Overcast
9:00 PM 62.6 °F - 44.6 °F 52% 30.03 in 40.0 mi NE 3.5 mph - N/A   Overcast
10:00 PM 57.2 °F - 44.6 °F 63% 30.03 in 40.0 mi WNW 4.6 mph - N/A   Mostly Cloudy
11:00 PM 57.2 °F - 42.8 °F 59% 30.02 in 9.0 mi WNW 2.3 mph - N/A   Overcast